PulseSat

PulseSat

MOLNIYA 3-50

Last updated on Dec. 6, 2018, 12:08 a.m. UTC

1 25847U 99036A   18339.10179752  .00000524  00000-0 -18813-2 0  9994
2 25847  62.0950 172.7989 7182967 270.6863  15.2654  2.00590031142229
UTC
Height (km)
Latitude
Longitude
Inclination
Orbital Period

Next 30 passes for location: Hong Kong

Rise time Rise Azimuth (degrees) Set time Set Azimuth (degrees) Duration Max altitude (degrees)

No matching passes for this satellites

PulseSat

PulseSat is the new satellites software and hardware trackering solution by Pulsely.
Satellite Two Line Element Set source: US Air Force Space Command

Download PulseSat for iOS
© 2017 Pulsely Limited